Miscellaneous Local Product
Issued by NWS North Platte, NE

Home | Current Version | Previous Version | Graphics & Text | Print | Product List | Glossary On
Versions: 1 2 3 4 5 6 7 8 9 10 11 12 13 14 15 16 17 18 19 20 21 22 23 24 25 26 27 28 29 30 31 32 33 34 35 36 37 38 39 40 41 42 43 44 45 46 47 48 49 50
000
AXUS43 KLBF 291610
MISLBF


WESTERN AND NORTH CENTRAL NEBRASKA HOURLY WEATHER ROUNDUP
NATIONAL WEATHER SERVICE NORTH PLATTE NE
1100 AM CDT SAT AUG 29 2015

NOTE: "FAIR" INDICATES FEW OR NO CLOUDS BELOW 12,000 FEET WITH NO
SIGNIFICANT WEATHER AND/OR OBSTRUCTIONS TO VISIBILITY.

NOTE: STATIONS NOT REPORTING VARIABLES SUCH AS SKY/WEATHER OR
PRESSURE ARE PROVIDED BY THE NEBRASKA DEPARTMENT OF
ROADS...RAWS...AND APRS NETWORKS...AND ARE NOT UNDER
NATIONAL WEATHER SERVICE QUALITY CONTROL.

...OBSERVATIONS IN AND NEAR THE EASTERN PANHANDLE OF NEBRASKA...

CITY           SKY/WX    TMP DP  RH WIND       PRES   REMARKS
PINE RIDGE     SUNNY     76  53  44 SW3       30.12S
CHADRON        SUNNY     79  48  33 SW3       30.11S HAZE
ALLIANCE       SUNNY     77  50  38 SW5       30.16F
SIDNEY         SUNNY     82  47  29 SW8       30.22R
CRESCENT LAKE    N/A     79  55  42 CALM        N/A
BIG SPRINGS      N/A     70  56  61 W3          N/A
$$

...OBSERVATIONS IN NORTH CENTRAL NEBRASKA...

CITY           SKY/WX    TMP DP  RH WIND       PRES   REMARKS
VALENTINE      PTSUNNY   71  61  70 SW6       30.09S
THEDFORD       MOSUNNY   78  63  59 W6        30.14S
AINSWORTH      MOSUNNY   68  64  86 SW5       30.11S
O`NEILL        MOSUNNY   72  68  89 S5        30.11S
ORD            SUNNY     72  63  73 CALM      30.11S
BROKEN BOW     MOSUNNY   73  65  75 CALM      30.13R
SPRINGVIEW       N/A     68  67  97 CALM        N/A
SARGENT          N/A     69  65  87 CALM        N/A
CHAMBERS         N/A     77  68  74 CALM        N/A
EWING            N/A     66  63  91 CALM        N/A
$$

...OBSERVATIONS IN SOUTHWEST NEBRASKA AND FAR NORTHEAST COLORADO...

CITY           SKY/WX    TMP DP  RH WIND       PRES   REMARKS
WRAY           FAIR      79  51  36 CALM      30.21S
HOLYOKE        FAIR      79  54  41 SW5       30.20S
IMPERIAL       SUNNY     77  58  51 W6        30.18R
OGALLALA       SUNNY     71  58  63 SW3       30.17S
NORTH PLATTE   SUNNY     72  63  73 NW3       30.15S
MCCOOK         SUNNY     74  61  63 VRB3      30.15R
LEXINGTON      SUNNY     73  66  79 W5        30.14S
PAXTON           N/A     71  63  77 CALM        N/A
BRADY            N/A     70  64  82 CALM        N/A
CALLAWAY         N/A     76  69  80 W5          N/A
$$

...OBSERVATIONS IN CENTRAL LINCOLN COUNTY AREA...

CITY           SKY/WX    TMP DP  RH WIND       PRES   REMARKS
N.P. AIRPORT   SUNNY     72  63  73 NW3       30.15S
N.P. DOWNTOWN    N/A     74  64  70 CALM        N/A
N.P. SOUTHEAST   N/A     74  63  67 CALM        N/A
$$

...SOME OBSERVATIONS FROM AROUND THE REGION...

CITY           SKY/WX    TMP DP  RH WIND       PRES   REMARKS
DENVER         SUNNY     78  44  29 SW8       30.28R
LARAMIE        SUNNY     69  42  37 S8        30.37S
CHEYENNE       SUNNY     74  45  35 S7        30.31R
SCOTTSBLUFF    SUNNY     70  53  54 E5        30.17F
RAPID CITY     SUNNY     73  59  61 SE5       30.06S
PIERRE         SUNNY     74  65  73 S6        29.99F
WINNER         FAIR      74  61  63 SW9       30.04F
SIOUX FALLS    MOSUNNY   63  58  83 VRB5      30.08R
OMAHA          CLOUDY    62  60  93 N9        30.08R
GRAND ISLAND   CLOUDY    66  60  81 VRB6      30.12S
KANSAS CITY    CLOUDY    69  66  90 N3        30.03R
WICHITA        CLOUDY    73  62  68 N14       30.06R
HAYS           SUNNY     75  57  53 N14       30.11S
LIBERAL        SUNNY     75  64  69 NE9       30.18R
GOODLAND       SUNNY     79  55  43 VRB5      30.21S
$$



USA.gov is the U.S. government's official web portal to all federal, state and local government web resources and services.